Location: Gleizolles
(44.4833°N, 6.7667°E)
Time: 03:33:10
(UTC+00:00)

N. Korean satellite - Pass Details

Date: 07 December 2021
Orbit: 447 x 491 km, 97.3° (Epoch: 23 January)

Event Time Altitude Azimuth Distance (km) Brightness Sun altitude
Rises 17:07:15 0° 214° (SW) 2,518 11.1 -12.7°
Reaches altitude 10° 17:10:37 10° 249° (WSW) 1,634 10.7 -13.3°
Maximum altitude 17:11:48 11° 269° (W) 1,548 10.3 -13.5°
Drops below altitude 10° 17:12:59 10° 289° (WNW) 1,630 10.0 -13.7°
Sets 17:16:20 0° 325° (NW) 2,500 10.4 -14.3°
